Location: Banksville Park
(38.5557°N, 75.1182°W)
Time: 00:56:40
(UTC+00:00)

NOSS 3-2 (A) - Pass Details

Date: 19 September 2020
Orbit: 795 x 1413 km, 63.4° (Epoch: 28 October)

Event Time Altitude Azimuth Distance (km) Brightness Sun altitude
Rises 01:24:14 0° 327° (NNW) 4,032 7.6 -27.5°
Reaches altitude 10° 01:26:50 10° 328° (NNW) 3,148 6.9 -27.9°
Maximum altitude 01:34:36 86° 57° (ENE) 1,327 4.0 -29.3°
Enters shadow 01:36:12 63° 139° (SE) 1,472 4.0 -29.5°
